Back to catalog

THINK ORBITAL F2

AliveScienceVLEO
NORAD 62380·PAYLOAD·🇺🇸 United States
This satellite name has not been confirmed by official sources yet.

Launched Dec 21, 2024 from Vandenberg Space Force Base

Loading…

Next Passes (next 24 hours)

TLE

FreshSource: Space-Track

Epoch: Sep 14, 2026, 10:36 UTC

1 62380U 24247D   26257.44203218  .00006752  00000-0  22232-3 0  9998
2 62380  44.9945 159.2164 0001986  81.4493 278.6617 15.32243542 96684

Track THINK ORBITAL F2 in real time with AllMySat

Download on the App Store